www.pogodaiklimat.ru

Погода и климат >> Архив погоды >> Мексика >> Hermosillo la Magna


ПОГОДА в Hermosillo la Magna

  • Прогноз погоды в Hermosillo la Magna
  • Монитор погоды в Hermosillo la Magna
  • Климат города

АРХИВ ПОГОДЫ в Hermosillo la Magna

Время (UTC), дата Ветер
(напр.,м/с)
 
Видим.   Явления Облачность Т
(С)
Тd
(С)
f
(%)
Тe
(С)
Тes
(С)
Комфортность P
(гПа)
Po
(гПа)
Тmin
(С)
Tmax
(С)
R
(мм)
R24
(мм)
S
(см)
03 10.12 СВ 1 н/о н/о +18.9 -4.0 21 +20 +20 1017.7 993.0
06 10.12 В 1 н/о н/о +15.9 -7.1 20 +17 +17 1018.9 993.9 +9.2 +30.6
09 10.12 СВ 2 н/о н/о +13.5 -5.8 26 +13 +13 1018.5 993.3
12 10.12 В 2 н/о н/о -6.9 -3 -3 1018.4 993.3 +12.5 +30.6
15 10.12 н/о -6.0 1020.5 995.4
18 10.12 СВ 5 н/о н/о +24.2 -6.4 13 +22 +22 комфорт 1020.0 995.7 +12.5 +24.9
21 10.12 СВ 1 н/о н/о +25.3 -2.6 16 +23 +23 комфорт 1017.6 993.4
00 11.12 СЗ 2 н/о н/о +23.0 -2.4 18 1018.3 993.2 +12.5 +28.1
03 11.12 СВ 1 н/о н/о +19.1 -0.7 26 +20 +20 1018.9 994.2
06 11.12 В 2 н/о н/о +16.1 -3.1 27 +16 +16 1020.3 995.3 +12.5 +28.1
09 11.12 В 1 н/о н/о +15.4 -3.6 27 +16 +16 1020.1 995.0
12 11.12 ЮВ 2 н/о н/о +15.5 -5.8 23 +16 +16 1020.1 995.1 +14.6 +28.1
15 11.12 СВ 3 н/о н/о +18.2 -7.3 17 +18 +18 1020.6 995.8
18 11.12 ЮВ 2 н/о н/о +25.1 -2.0 17 +23 +23 комфорт 1022.0 997.7 +14.6 +25.3
21 11.12 В 2 н/о н/о +30.0 +8.1 25 +29 +29 жарко 1018.0 994.2
00 12.12 З 2 н/о н/о +27.2 +8.8 31 1018.1 994.3 +14.6 +30.8
03 12.12 З 2 н/о н/о +21.0 +3.2 31 +22 +22 комфорт 1020.3 995.7
06 12.12 В 1 н/о н/о +16.6 +4.2 44 +18 +18 1021.2 996.2 +14.6 +30.8
09 12.12 В 2 н/о н/о +13.0 -0.6 39 +13 +13 1020.8 995.5
12 12.12 В 1 н/о н/о -4.4 -2 -2 1020.2 994.9 +11.7 +30.8
15 12.12 ЮВ 1 н/о н/о +12.3 -4.6 30 +13 +13 1020.3 995.0
18 12.12 В 4 н/о н/о +25.6 -0.7 18 +24 +24 комфорт 1018.3 994.1 +11.7 +25.7
21 12.12 СВ 1 н/о н/о +31.9 +2.5 15 +29 +29 жарко 1013.5 989.9
00 13.12 З 2 н/о н/о +28.9 +2.9 19 1012.5 989.0 +11.7 +33.4
03 13.12 З 2 н/о н/о +22.6 +1.8 25 +22 +22 комфорт 1013.8 989.5
06 13.12 В 1 н/о н/о +18.0 +2.2 35 +19 +19 1014.4 989.7 +11.7 +33.4
09 13.12 В 1 н/о н/о +14.5 +1.3 41 +15 +15 1014.3 989.3
00 14.12 З 3 н/о н/о +26.9 +1.4 19 1011.5 5.0 +10.6 +30.1
03 14.12 З 2 н/о н/о +21.2 +6.3 38 +22 +22 комфорт 1013.3 988.9
06 14.12 СВ 2 н/о н/о +16.8 +6.5 51 +17 +17 1014.5 1153.4 +10.6 +30.1
09 14.12 СВ 2 н/о н/о +15.0 +4.5 49 +15 +15 1014.1 989.2
12 14.12 В 2 н/о н/о +9.9 +2.2 59 +9 +9 1014.5 989.1 +9.9 +30.1
15 14.12 В 1 н/о н/о +10.0 +2.0 58 +10 +10 1015.4 990.0
18 14.12 Ю 1 н/о н/о +23.5 +3.8 28 +23 +23 комфорт 1014.4 990.2 +9.2 +23.5
21 14.12 З 3 н/о н/о +27.3 -3.6 13 +25 +25 комфорт 1011.4 987.5
00 15.12 З 2 н/о н/о +25.1 -4.4 14 1011.0 987.5 +9.2 +27.5
03 15.12 З 2 н/о н/о +18.9 +1.1 30 +20 +20 1013.5 988.9
06 15.12 штиль 0 н/о н/о +14.4 +2.8 46 +14 +14 1015.2 990.2 +9.2 +27.5
09 15.12 В 1 н/о н/о +9.9 -3.2 40 +10 +10 1015.9 990.5
12 15.12 ЮВ 2 н/о н/о -3.4 -3 -3 1015.6 990.1 +8.6 +27.5
15 15.12 ЮВ 1 н/о н/о +10.6 -1.7 42 +11 +11 1017.3 991.9
18 15.12 В 6 н/о н/о +24.2 +3.0 25 +23 +23 комфорт 1016.1 991.9 +8.6 +24.2
21 15.12 СВ 4 н/о н/о +28.1 +0.8 17 +26 +26 жарко 1012.4 988.6
00 16.12 СВ 2 н/о н/о +26.5 -2.7 14 1011.3 987.9 +8.6 +29.4
03 16.12 В 2 н/о н/о +19.8 -6.4 16 +20 +20 1012.8 988.3
06 16.12 ЮВ 1 н/о н/о +15.2 -5.6 23 +16 +16 1013.2 988.3 +8.6 +29.4
09 16.12 В 2 н/о н/о +10.7 -6.6 29 +10 +10 1013.1 987.8
12 16.12 В 2 н/о н/о -5.9 -3 -3 1011.6 986.3 +9.8 +29.4
15 16.12 В 2 н/о н/о +8.4 -5.8 36 +7 +7 1012.9 987.4
18 16.12 В 3 н/о н/о +21.7 -0.7 22 +21 +21 комфорт 1011.6 987.3 +7.5 +21.7
21 16.12 Ю 4 н/о н/о +24.9 +6.9 32 +25 +25 комфорт 1008.0 984.0

 

Местоположение метеостанции Hermosillo la Magna (Мексика): широта 29.08 долгота -110.95 высота над уровнем моря 210 м.

В архиве по умолчанию представлена погода в Hermosillo la Magna за последнюю неделю. Архивные данные за месяц целиком и за предыдущие месяцы, начиная с января 2011 года, Вы можете получить, выбрав интересующий диапазон дат из раскрывающегося списка и нажав кнопку "Ввод!".

Внимание! Время в таблицах - всемирное. Для получения местного времени необходимо прибавить поправку, которая в Hermosillo la Magna равна -7 ч.

Смотрите также архив погоды в соседних городах и на ближайших метеорологических станциях:

Погода в Hermosillo (Мексика) (10 км)
Погода в Empalme (Мексика) (128 км)
Погода в Guaymas (Мексика) (129 км)
Погода в Pilares de Nacoz (Мексика) (189 км)
Погода в Altar Son (Мексика) (201 км)
Погода в Ciudad Obregon (Мексика) (218 км)
Погода в Santa Rosalia (Мексика) (237 км)
Погода в Temosachic (Мексика) (307 км)
Погода в Nueva Casas Grandes (Мексика) (328 км)
Погода в Loreto (Мексика) (342 км)

Пояснения к столбцам:

Ветер - указаны скорость ветра в м/с - средняя за 10 мин, порывы в срок и между сроками (в фигурных скобках) и направление, откуда дует ветер: С - северный, СВ - северо-восточный, В - восточный, ЮВ - юго-восточный, Ю - южный, ЮЗ - юго-западный, З - западный, СЗ - северо-западный.
Видимость - горизонтальная дальность видимости в метрах или километрах. При видимости от 1 до 10 км при отсутствии осадков обычно наблюдается дымка, при ухудшении видимости до 1 км и менее - туман. В сухую погоду видимость может ухудшаться дымом, пылью или мглою.
Явления - указаны атмосферные явления, наблюдавшиеся в срок или в последний час перед сроком; фигурными скобками обозначены явления, наблюдавшиеся между сроками (за 1-3 часа до срока); квадратными скобками обозначены град или гололедные отложения с указанием их диаметра в мм.
Облачность - указаны через наклонную черту общая и нижняя облачность в баллах и высота нижней границы облаков в метрах; квадратными скобками обозначены формы облаков: Ci - перистые, Cs - перисто-слоистые, Cc - перисто-кучевые, Ac - высококучевые, As - высокослоистые, Sc - слоисто-кучевые, Ns - слоисто-дождевые, Cu - кучевые, Cb - кучево-дождевые. Подробнее классификацию облаков см. в Атласе облаков (PDF).
T - Температура воздуха - температура, измеренная на высоте 2 м над землей.
Td - Температура точки росы - температура, при понижении до которой содержащийся в воздухе водяной пар достигнет насыщения.
f - Относительная влажность воздуха - влажноcть воздуха, измеренная на высоте 2 м над землей.
Te - Эффективная температура - температура, которую ощущает одетый по сезону человек в тени. Характеристика душности погоды. При расчете учитывается влияние влажности воздуха и скорости ветра на теплоощущения человека.
Tes - Эффективная температура на солнце - температура, которую ощущает человек, с поправкой на солнечный нагрев. Характеристика знойности погоды. Зависит от высоты солнца над горизонтом, облачности и скорости ветра. Ночью, в пасмурную погоду, а также при ветре 12 м/с и более поправка равна нулю.
P - Атмосферное давление - приведенное к уровню моря атмосферное давление.
Po - Атмосферное давление - измеренное на уровне метеостанции атмосферное давление.
Tmin - Минимальная температура - минимум температуры воздуха на высоте 2 м над землей.
Tmax - Максимальная температура - максимум температуры воздуха на высоте 2 м над землей.
R - Количество осадков - Количество выпавших осадков за период времени, мм. При наведении курсора мыши на число - период времени, за который выпало указанное количество осадков.
R24 - Количество осадков - Количество выпавших осадков за 24 часа, мм.
S - Снежный покров - Высота снежного покрова, см. При наведении курсора мыши на число - состояние снежного покрова и степень покрытия местности в баллах.